Voltar ao catálogo

STARLINK-3981

AtivoComunicaçõesVLEO
NORAD 52687·PAYLOAD·🇺🇸 United States

Lançado May 18, 2022 de Cape Canaveral Space Force Station

Loading…

Próximas Passagens (próximas 24 horas)

TLE

AtualizadoSource: CelesTrak SupGP

Época: Sep 15, 2026, 02:50 UTC

1 52687C 22053AH  26258.11854167  .00405780  00000+0  15193-1 0  2587
2 52687  53.1607  12.0912 0001168  89.7829 147.1689 15.26554731    12

Acompanhe STARLINK-3981 em tempo real com AllMySat

Download on the App Store